Morristown, NJ

10:10 PM EDT on October 21, 2017 (GMT -0400)
Morristown Municipal

Weather History for KMMU - August, 2013

Change the Weather History Date:

Thursday, August 29, 2013

  Actual Average Record
Temperature  
Mean Temperature 74 °F -  
Max Temperature 80 °F 83 °F 102 °F (1953)
Min Temperature 68 °F 60 °F 39 °F (1935)
Cooling Degree Days 9    
Growing Degree Days 24 (Base 50)    
Moisture  
Dew Point 67 °F    
Average Humidity 85    
Maximum Humidity 100    
Minimum Humidity 61    
Precipitation  
Precipitation 0.00 in - - ()
Sea Level Pressure  
Sea Level Pressure 29.97 in    
Wind  
Wind Speed 1 mph (ENE)    
Max Wind Speed 10 mph    
Max Gust Speed -    
Visibility 5 miles    
Events Fog    
Averages and records for this station are not official NWS values.
T = Trace of Precipitation, MM = Missing Value Source: NWS Daily Summary

Daily Weather History Graph

Daily Weather History Graph

Search for Another Location

Airport or City:

Trip Planner

Search our weather history database for the weather conditions in past years. The results will help you decide how hot, cold, wet, or windy it might be!

Date:

Astronomy

Aug. 29, 2013 Rise Set
Actual Time 6:21 AM EDT 7:34 PM EDT
Civil Twilight 5:53 AM EDT 8:02 PM EDT
Nautical Twilight 5:19 AM EDT 8:36 PM EDT
Astronomical Twilight 4:43 AM EDT 9:11 PM EDT
Moon 12:10 AM EDT (8/29) 3:02 PM EDT (8/29)
Length of Visible Light 14h 09m
Length of Day
13h 12m
Last Quarter, 38% of the Moon is Illuminated
Aug 29
Last Quarter
Sep 5
New
Sep 12
First Quarter
Sep 19
Full
Sep 26
Last Quarter

Hourly Weather History & Observations

Time (EDT) Temp. Heat Index Dew Point Humidity Pressure Visibility Wind Dir Wind Speed Gust Speed Precip Events Conditions
12:15 AM 69.8 °F - 68.0 °F 94% 29.90 in 0.8 mi Calm Calm - N/A   Mist
12:35 AM 69.8 °F - 68.0 °F 94% 29.90 in 0.5 mi Calm Calm - N/A Fog Fog
12:55 AM 69.8 °F - 66.2 °F 88% 29.90 in 0.2 mi Calm Calm - N/A Fog Fog
1:15 AM 69.8 °F - 68.0 °F 94% 29.91 in 0.5 mi Calm Calm - N/A Fog Fog
1:35 AM 69.8 °F - 66.2 °F 88% 29.91 in 0.2 mi Calm Calm - N/A Fog Fog
1:55 AM 68.0 °F - 66.2 °F 94% 29.91 in 0.8 mi Calm Calm - N/A   Overcast
2:15 AM 68.0 °F - 64.4 °F 88% 29.91 in 0.2 mi Calm Calm - N/A Fog Fog
2:35 AM 68.0 °F - 64.4 °F 88% 29.91 in 4.0 mi Calm Calm - N/A   Scattered Clouds
2:55 AM 68.0 °F - 64.4 °F 88% 29.91 in 0.2 mi Calm Calm - N/A Fog Fog
3:15 AM 68.0 °F - 66.2 °F 94% 29.92 in 2.0 mi Calm Calm - N/A   Overcast
3:35 AM 68.0 °F - 66.2 °F 94% 29.92 in 5.0 mi Calm Calm - N/A   Overcast
3:55 AM 68.0 °F - 66.2 °F 94% 29.92 in 2.5 mi Calm Calm - N/A   Overcast
4:15 AM 68.0 °F - 66.2 °F 94% 29.92 in 5.0 mi Calm Calm - N/A   Overcast
4:35 AM 69.8 °F - 68.0 °F 94% 29.93 in 5.0 mi North 3.5 mph - N/A   Overcast
4:55 AM 71.6 °F - 68.0 °F 88% 29.93 in 4.0 mi North 4.6 mph - N/A   Overcast
5:15 AM 71.6 °F - 68.0 °F 88% 29.93 in 3.0 mi NNE 3.5 mph - N/A   Overcast
5:35 AM 71.6 °F - 68.0 °F 88% 29.94 in 3.0 mi Calm Calm - N/A   Overcast
5:55 AM 71.6 °F - 68.0 °F 88% 29.95 in 3.0 mi Calm Calm - N/A   Overcast
6:15 AM 71.6 °F - 68.0 °F 88% 29.95 in 3.0 mi Calm Calm - N/A   Overcast
6:35 AM 71.6 °F - 68.0 °F 88% 29.95 in 3.0 mi Calm Calm - N/A   Overcast
6:45 AM 69.8 °F - 68.0 °F 94% 29.96 in 1.8 mi Calm Calm - N/A   Overcast
7:45 AM 69.8 °F - 69.8 °F 100% 29.98 in 1.8 mi NE 5.8 mph - N/A   Overcast
9:45 AM 71.6 °F - 69.8 °F 94% 30.01 in 2.2 mi Calm Calm - N/A   Overcast
10:45 AM 73.4 °F - 68.0 °F 83% 30.02 in 2.2 mi East 8.1 mph - N/A   Overcast
11:10 AM 73.4 °F - 69.8 °F 88% 30.02 in 3.0 mi ENE 4.6 mph - N/A   Overcast
11:45 AM 73.4 °F - 69.8 °F 88% 30.02 in 3.0 mi NNE 4.6 mph - N/A   Mostly Cloudy
12:45 PM 77.0 °F - 68.0 °F 74% 30.02 in 5.0 mi Calm Calm - N/A   Overcast
1:45 PM 75.2 °F - 66.2 °F 73% 30.02 in 7.0 mi Calm Calm - N/A   Overcast
2:45 PM 78.8 °F - 68.0 °F 69% 30.01 in 8.0 mi ENE 5.8 mph - N/A   Overcast
3:45 PM 80.6 °F 82.7 °F 66.2 °F 61% 30.00 in 9.0 mi ENE 3.5 mph - N/A   Mostly Cloudy
4:45 PM 80.6 °F 83.2 °F 68.0 °F 65% 30.00 in 10.0 mi East 10.4 mph - N/A   Mostly Cloudy
5:45 PM 78.8 °F - 66.2 °F 65% 30.00 in 10.0 mi ESE 8.1 mph - N/A   Mostly Cloudy
6:45 PM 77.0 °F - 66.2 °F 69% 30.00 in 10.0 mi South 6.9 mph - N/A   Mostly Cloudy
7:45 PM 73.4 °F - 66.2 °F 78% 30.02 in 10.0 mi SE 4.6 mph - N/A   Overcast
8:45 PM 73.4 °F - 64.4 °F 73% 30.02 in 10.0 mi Calm Calm - N/A   Overcast
9:45 PM 71.6 °F - 64.4 °F 78% 30.03 in 10.0 mi SSE 4.6 mph - N/A   Overcast
10:55 PM 69.8 °F - 64.4 °F 83% 30.03 in 10.0 mi Calm Calm - N/A   Scattered Clouds
11:15 PM 69.8 °F - 64.4 °F 83% 30.03 in 10.0 mi Calm Calm - N/A   Mostly Cloudy
11:35 PM 69.8 °F - 66.2 °F 88% 30.03 in 10.0 mi Calm Calm - N/A   Overcast
11:55 PM 71.6 °F - 66.2 °F 83% 30.04 in 10.0 mi Calm Calm - N/A   Overcast